EW8088 Weather Reports


time (UTC)temp
C
wind
direction
speed
KPH
gust
KPH
rain 1hr
cm
rain 24hr
cm
rain mn
cm
humidity
%
barometer
mb
20260505200017 12 0 1.6 11.3 0.00 0.00 0.00 94 1013.1
20260505195017 12 0.0 8.0 0.00 0.00 0.00 95 1013.0
20260505194037 12 338 1.6 11.3 0.00 0.00 0.00 95 1012.8
20260505193017 12 0.0 4.8 0.00 0.00 0.00 95 1012.8
20260505192017 12 0.0 4.8 0.00 0.00 0.00 95 1012.7
20260505190017 13 0.0 3.2 0.00 0.00 0.00 96 1012.5
20260505185017 13 0.0 0.0 0.00 0.00 0.00 96 1012.5
20260505184017 13 0.0 6.4 0.00 0.00 0.00 96 1012.3
20260505183017 13 0 1.6 8.0 0.00 0.00 0.00 96 1012.3
20260505182017 13 338 1.6 6.4 0.00 0.00 0.00 96 1012.3
20260505181017 14 0 1.6 9.7 0.00 0.00 0.00 95 1012.2
20260505180016 14 338 3.2 6.4 0.00 0.00 0.00 95 1012.2
20260505175017 14 0 3.2 9.7 0.00 0.00 0.00 95 1012.2
20260505174017 14 0 1.6 8.0 0.00 0.00 0.00 95 1012.2
20260505173017 14 0 3.2 9.7 0.00 0.00 0.00 95 1012.2
20260505172016 14 0 1.6 6.4 0.00 0.00 0.00 95 1012.3
20260505171017 14 338 1.6 8.0 0.00 0.00 0.00 94 1012.3
20260505170036 14 0 1.6 6.4 0.00 0.00 0.00 95 1012.4
20260505165017 14 338 1.6 9.7 0.00 0.00 0.00 95 1012.3
20260505164016 14 338 1.6 6.4 0.00 0.00 0.00 95 1012.4
20260505163017 14 338 3.2 9.7 0.00 0.00 0.00 94 1012.3
20260505162016 14 338 1.6 8.0 0.00 0.00 0.00 94 1012.3
20260505161017 14 338 1.6 6.4 0.00 0.00 0.00 94 1012.3
20260505153016 14 0.0 3.2 0.00 0.00 0.00 94 1012.4
20260505152017 14 0.0 3.2 0.00 0.00 0.00 94 1012.4
20260505151116 14 0 1.6 8.0 0.00 0.00 0.00 94 1012.4
20260505125016 15 0.0 3.2 0.00 0.00 0.00 94 1013.0
20260505124016 15 338 1.6 6.4 0.00 0.00 0.00 94 1012.9
20260505123036 15 0 1.6 6.4 0.00 0.00 0.00 94 1013.0
20260505122016 15 0.0 4.8 0.00 0.00 0.00 94 1013.0
20260505121016 15 0.0 8.0 0.00 0.00 0.00 94 1013.0
20260505120036 15 0.0 6.4 0.00 0.00 0.00 94 1013.1
20260505115016 15 0 1.6 8.0 0.00 0.00 0.00 94 1013.0
20260505114016 14 0 1.6 6.4 0.00 0.00 0.00 94 1013.1
20260505113016 13 0 1.6 6.4 0.00 0.00 0.00 94 1013.2
20260505112036 13 0.0 4.8 0.00 0.00 0.00 94 1013.3
20260505111016 13 0 1.6 8.0 0.00 0.00 0.00 94 1013.4
20260505102016 13 0 1.6 6.4 0.00 0.00 0.00 95 1013.7
20260505101016 14 338 1.6 8.0 0.00 0.00 0.00 95 1013.7
20260505100036 14 0.0 6.4 0.00 0.00 0.00 95 1013.7
20260505095036 14 0.0 3.2 0.00 0.00 0.00 95 1013.8
20260505094016 14 0.0 4.8 0.00 0.00 0.00 95 1013.8
20260505093036 13 0 1.6 9.7 0.00 0.00 0.00 95 1013.8
20260505092016 13 338 1.6 8.0 0.00 0.00 0.00 94 1013.8
20260505091016 12 338 1.6 6.4 0.00 0.00 0.00 95 1013.8
20260505090036 12 0 1.6 6.4 0.00 0.00 0.00 95 1013.8
20260505085016 12 0 1.6 9.7 0.00 0.00 0.00 95 1013.9
20260505084036 12 338 1.6 6.4 0.00 0.00 0.00 95 1013.9
20260505083016 12 0 1.6 8.0 0.00 0.00 0.00 95 1013.9
20260505082016 11 338 1.6 6.4 0.00 0.00 0.00 95 1013.9
20260505081036 11 338 1.6 9.7 0.00 0.00 0.00 95 1014.0
20260505080035 11 338 1.6 8.0 0.00 0.00 0.00 95 1013.9
20260505075016 11 0.0 3.2 0.00 0.00 0.00 95 1013.9
20260505074015 11 0.0 4.8 0.00 0.00 0.00 95 1013.9
20260505073016 10 0.0 3.2 0.00 0.00 0.00 95 1014.0
20260505072056 10 0.0 1.6 0.00 0.00 0.00 95 1014.0
20260505071035 10 0.0 1.6 0.00 0.00 0.00 95 1014.0
20260505070115 10 0.0 1.6 0.00 0.00 0.00 95 1014.1
20260505065015 10 0.0 1.6 0.00 0.00 0.00 95 1014.1
20260505064015 10 0.0 1.6 0.00 0.00 0.00 95 1014.0
20260505063035 10 0.0 1.6 0.00 0.00 0.00 95 1014.1
20260505062016 9 0.0 1.6 0.00 0.00 0.00 95 1014.1
20260505061015 9 0.0 1.6 0.00 0.00 0.00 95 1014.2
20260505060017 9 0.0 0.0 0.00 0.00 0.00 95 1014.2
20260505055017 9 0.0 0.0 0.00 0.00 0.00 95 1014.2
20260505054037 9 0.0 0.0 0.00 0.00 0.00 95 1014.3
20260505053017 9 0.0 0.0 0.00 0.00 0.00 95 1014.4
20260505052017 9 0.0 0.0 0.00 0.00 0.00 95 1014.4
20260505051038 9 0.0 1.6 0.00 0.00 0.00 95 1014.3
20260505041017 8 0.0 0.0 0.00 0.00 0.00 94 1014.4
20260505040057 8 0.0 0.0 0.00 0.00 0.00 94 1014.3
20260505035017 8 0.0 0.0 0.00 0.00 0.00 94 1014.3
20260505034037 8 0.0 0.0 0.00 0.00 0.00 94 1014.2
20260505033017 7 0.0 1.6 0.00 0.00 0.00 94 1014.1
20260505032017 7 0.0 0.0 0.00 0.00 0.00 94 1014.0
20260505031017 7 0.0 0.0 0.00 0.00 0.00 94 1014.0
20260505030017 7 0.0 0.0 0.00 0.00 0.00 94 1014.3
20260505025017 7 0.0 0.0 0.00 0.00 0.00 95 1014.3
20260505024037 7 0.0 0.0 0.00 0.00 0.00 95 1014.3
20260505023017 7 0.0 0.0 0.00 0.00 0.00 95 1014.0
20260505022017 7 0.0 0.0 0.00 0.00 0.00 95 1014.2
20260505021017 7 0.0 0.0 0.00 0.00 0.00 95 1014.3
20260505020017 7 0.0 0.0 0.00 0.00 0.00 95 1014.4
20260505015037 8 0.0 0.0 0.00 0.00 0.00 95 1014.6
20260505014017 8 0.0 0.0 0.00 0.00 0.00 95 1014.7
20260505013017 8 0.0 0.0 0.00 0.00 0.00 95 1014.7
20260505012017 8 0.0 0.0 0.00 0.00 0.00 95 1014.8
20260505011017 8 0.0 0.0 0.00 0.00 0.00 95 1014.7
20260505010037 8 0.0 0.0 0.00 0.00 0.00 95 1014.6
20260505005037 8 0.0 0.0 0.00 0.00 0.00 95 1014.5
20260505004037 8 0.0 0.0 0.00 0.00 0.00 95 1014.7
20260505003036 8 0.0 0.0 0.00 0.00 0.00 95 1014.8
20260505002017 8 0.0 0.0 0.00 0.00 0.00 95 1014.9
20260505001016 9 0.0 0.0 0.00 0.00 0.00 95 1015.1
20260505000017 10 0.0 0.0 0.00 0.00 0.00 95 1015.2
20260504235017 10 0.0 0.0 0.00 0.00 0.00 96 1015.3
20260504234017 10 0.0 0.0 0.00 0.00 0.00 96 1015.3
20260504233017 10 0.0 0.0 0.00 0.00 0.00 96 1015.3
20260504232017 10 0.0 0.0 0.00 0.00 0.00 96 1015.2
20260504231017 11 0.0 1.6 0.00 0.03 0.00 96 1015.2
20260504230017 11 0.0 1.6 0.00 0.03 0.03 96 1015.3
20260504225017 11 0.0 0.0 0.00 0.03 0.03 96 1015.3
20260504224017 11 0.0 1.6 0.00 0.03 0.03 96 1015.3
20260504223017 11 0.0 1.6 0.00 0.03 0.03 96 1015.4
20260504222017 11 0.0 1.6 0.00 0.03 0.03 96 1015.5
20260504221017 11 0.0 0.0 0.00 0.03 0.03 96 1015.5
20260504220017 11 0.0 1.6 0.00 0.03 0.03 96 1015.6
20260504215017 11 0.0 1.6 0.00 0.03 0.03 96 1015.6
20260504214017 11 0.0 3.2 0.00 0.03 0.03 96 1015.6
20260504213017 11 0.0 3.2 0.00 0.03 0.03 95 1015.6
20260504212037 12 0.0 1.6 0.00 0.03 0.03 95 1015.7
20260504211017 12 0.0 0.0 0.00 0.03 0.03 95 1015.6
20260504210017 12 0.0 0.0 0.00 0.03 0.03 95 1015.7
20260504205017 12 0.0 3.2 0.00 0.03 0.03 95 1015.6
20260504204037 12 0.0 4.8 0.00 0.03 0.03 95 1015.7
20260504203017 12 0.0 6.4 0.00 0.03 0.03 96 1015.7
20260504202037 12 0.0 6.4 0.00 0.03 0.03 96 1015.6
20260504201037 12 0.0 3.2 0.00 0.03 0.03 96 1015.5